EW2974 Weather Reports


Display with metric or nautical units.
time (UTC)temp
F
wind
direction
speed
MPH
gust
MPH
rain 1hr
in
rain 24hr
in
rain mn
in
humidity
%
barometer
mb
20260903021404 75 223 0.0 0.0 0.00 0.09 0.09 95 1011.8
20260903020905 75 223 0.0 0.0 0.00 0.09 0.09 95 1011.8
20260903020404 75 223 0.0 0.0 0.00 0.09 0.09 95 1011.7
20260903015905 75 223 0.0 0.0 0.00 0.09 0.09 95 1011.7
20260903014405 75 223 0.0 0.0 0.00 0.09 0.09 95 1011.8
20260903013904 75 223 0.0 0.0 0.00 0.09 0.09 95 1011.8
20260903013405 75 223 0.0 0.0 0.00 0.09 0.09 94 1011.8
20260903012904 75 223 0.0 0.0 0.00 0.09 0.09 94 1011.8
20260903012404 75 223 0.0 0.0 0.00 0.09 0.09 94 1011.9
20260903011905 75 223 0.0 0.0 0.01 0.09 0.09 94 1012.1
20260903011405 75 223 0.0 0.0 0.01 0.09 0.09 94 1012.2
20260903010905 75 223 0.0 0.0 0.01 0.09 0.09 94 1012.3
20260903010405 75 223 0.0 0.0 0.01 0.09 0.09 94 1012.4
20260903005905 75 223 0.0 0.0 0.01 0.09 0.09 94 1012.4
20260903004405 76 223 0.0 0.0 0.01 0.09 0.09 95 1012.1
20260903003905 76 223 0.0 0.0 0.01 0.09 0.09 95 1012.0
20260903003405 76 223 0.0 0.0 0.01 0.09 0.09 94 1012.0
20260903002905 76 223 0.0 0.0 0.01 0.09 0.09 94 1012.0
20260903002405 76 223 0.0 0.0 0.01 0.09 0.09 94 1012.2
20260903001905 76 223 0.0 0.0 0.00 0.08 0.08 94 1012.0
20260903001404 76 223 0.0 0.0 0.00 0.08 0.08 94 1011.6
20260903000905 76 223 0.0 0.0 0.00 0.08 0.08 94 1011.8
20260903000404 76 223 0.0 0.0 0.00 0.08 0.08 94 1011.7
20260902235905 76 223 0.0 0.0 0.00 0.08 0.08 94 1011.6
20260902235404 76 223 0.0 0.0 0.00 0.08 0.08 94 1011.7
20260902234405 76 223 0.0 0.0 0.00 0.08 0.08 94 1011.9
20260902233904 76 223 0.0 0.0 0.00 0.08 0.08 94 1011.8
20260902233405 76 223 0.0 0.0 0.00 0.08 0.08 93 1011.8
20260902232904 76 223 0.0 0.0 0.00 0.08 0.08 93 1011.7
20260902232404 76 223 0.0 0.0 0.00 0.08 0.08 93 1011.7
20260902231905 76 223 0.0 0.0 0.00 0.08 0.08 93 1011.8
20260902231404 76 223 0.0 0.0 0.00 0.08 0.08 92 1011.9
20260902230905 76 223 0.0 0.0 0.00 0.08 0.08 92 1011.9
20260902230405 76 223 0.0 0.0 0.00 0.08 0.08 92 1011.8
20260902225905 76 223 0.0 0.0 0.00 0.08 0.08 91 1011.9
20260902225405 77 223 0.0 0.0 0.00 0.08 0.08 91 1011.9
20260902224904 77 223 0.0 0.0 0.01 0.08 0.08 90 1012.0
20260902224405 77 223 0.0 0.0 0.01 0.08 0.08 89 1012.1
20260902223904 77 223 0.0 0.0 0.01 0.08 0.08 89 1012.1
20260902222404 78 223 0.0 0.0 0.01 0.08 0.08 91 1012.1
20260902221905 79 223 0.0 0.0 0.01 0.08 0.08 90 1012.0
20260902221405 79 223 0.0 0.0 0.01 0.08 0.08 91 1012.0
20260902220905 79 223 0.0 0.0 0.02 0.08 0.08 92 1011.9
20260902220404 79 223 0.0 0.0 0.06 0.08 0.08 93 1011.7
20260902215904 78 223 1.0 3.0 0.06 0.08 0.08 93 1011.9
20260902215405 78 55 0.0 0.0 0.06 0.08 0.08 93 1011.8
20260902214905 78 55 0.0 0.0 0.05 0.07 0.07 93 1011.8
20260902214404 78 55 0.0 0.0 0.07 0.07 0.07 91 1011.8
20260902213905 78 55 0.0 0.0 0.07 0.07 0.07 91 1011.8
20260902213404 78 55 0.0 0.0 0.07 0.07 0.07 91 1011.6
20260902212904 78 55 0.0 0.0 0.07 0.07 0.07 91 1011.7
20260902212404 77 55 0.0 0.0 0.07 0.07 0.07 88 1011.8
20260902211905 78 55 0.0 0.0 0.07 0.07 0.07 84 1011.9
20260902210904 80 55 0.0 3.0 0.06 0.06 0.06 85 1012.5
20260902210404 81 287 1.0 6.0 0.02 0.02 0.02 81 1012.9
20260902205905 83 256 0.0 1.0 0.02 0.02 0.02 77 1012.7
20260902205404 85 269 0.0 0.0 0.02 0.02 0.02 74 1012.2
20260902204905 86 253 1.0 8.0 0.02 0.02 0.02 70 1012.2
20260902203905 87 293 0.0 0.0 0.00 0.00 0.00 68 1012.0
20260902203405 88 293 0.0 0.0 0.00 0.00 0.00 68 1012.1
20260902202405 90 293 0.0 0.0 0.00 0.00 0.00 63 1012.0
20260902201905 91 243 0.0 0.0 0.00 0.00 0.00 62 1012.1
20260902201404 91 235 0.0 3.0 0.00 0.00 0.00 58 1012.1
20260902200904 92 223 0.0 0.0 0.00 0.00 0.00 58 1012.1
20260902200404 92 223 0.0 3.0 0.00 0.00 0.00 58 1012.0
20260902195905 92 250 1.0 5.0 0.00 0.00 0.00 57 1012.1
20260902195404 92 271 1.0 5.0 0.00 0.00 0.00 57 1012.2
20260902194905 93 236 0.0 0.0 0.00 0.00 0.00 56 1012.1
20260902194404 94 252 0.0 1.0 0.00 0.00 0.00 55 1012.1
20260902193405 94 266 3.0 12.0 0.00 0.00 0.00 54 1012.2
20260902192904 95 263 3.0 9.0 0.00 0.00 0.00 56 1012.3
20260902192405 95 266 1.0 6.0 0.00 0.00 0.00 56 1012.3
20260902191905 94 272 0.0 6.0 0.00 0.00 0.00 56 1012.4
20260902191404 94 205 0.0 3.0 0.00 0.00 0.00 55 1012.4
20260902190904 94 269 2.0 8.0 0.00 0.00 0.00 56 1012.5
20260902190404 94 178 0.0 3.0 0.00 0.00 0.00 56 1012.5
20260902185904 94 278 1.0 6.0 0.00 0.00 0.00 54 1012.5
20260902185404 94 270 0.0 8.0 0.00 0.00 0.00 56 1012.5
20260902184904 94 257 0.0 5.0 0.00 0.00 0.00 55 1012.5
20260902184405 94 292 1.0 8.0 0.00 0.00 0.00 56 1012.7
20260902183904 94 194 1.0 5.0 0.00 0.00 0.00 58 1012.7
20260902183404 94 264 3.0 8.0 0.00 0.00 0.00 57 1012.7
20260902182904 94 210 0.0 9.0 0.00 0.00 0.00 59 1012.8
20260902182405 93 218 0.0 6.0 0.00 0.00 0.00 57 1012.9
20260902181905 94 207 0.0 1.0 0.00 0.00 0.00 59 1012.9
20260902181404 93 232 0.0 3.0 0.00 0.00 0.00 58 1013.0
20260902180904 93 246 2.0 6.0 0.00 0.00 0.00 60 1013.1
20260902180405 93 246 0.0 1.0 0.00 0.00 0.00 61 1013.2
20260902175905 93 249 0.0 5.0 0.00 0.00 0.00 61 1013.2
20260902175404 93 259 2.0 16.0 0.00 0.00 0.00 61 1013.2
20260902174904 93 251 0.0 1.0 0.00 0.00 0.00 62 1013.3
20260902174404 93 250 1.0 3.0 0.00 0.00 0.00 62 1013.4
20260902173904 92 282 0.0 6.0 0.00 0.00 0.00 63 1013.4
20260902173404 92 199 0.0 5.0 0.00 0.00 0.00 63 1013.4
20260902171904 91 224 0.0 5.0 0.00 0.00 0.00 66 1013.6
20260902171404 91 178 0.0 8.0 0.00 0.00 0.00 66 1013.6
20260902170905 91 178 0.0 6.0 0.00 0.00 0.00 66 1013.6
20260902170404 91 185 1.0 5.0 0.00 0.00 0.00 67 1013.6
20260902165404 90 260 0.0 6.0 0.00 0.00 0.00 67 1013.6
20260902163904 89 165 0.0 0.0 0.00 0.00 0.00 71 1013.8
20260902163404 89 214 1.0 6.0 0.00 0.00 0.00 68 1013.8
20260902162904 89 185 1.0 5.0 0.00 0.00 0.00 69 1013.9
20260902162404 88 163 0.0 6.0 0.00 0.00 0.00 71 1013.9
20260902161905 87 266 0.0 3.0 0.00 0.00 0.00 73 1014.0
20260902161404 87 223 0.0 3.0 0.00 0.00 0.00 75 1014.1
20260902160905 87 197 0.0 1.0 0.00 0.00 0.00 75 1014.2
20260902160404 87 265 1.0 8.0 0.00 0.00 0.00 74 1014.2
20260902155904 86 217 0.0 5.0 0.00 0.00 0.00 76 1014.3
20260902154904 85 153 0.0 1.0 0.00 0.00 0.00 76 1014.3
20260902154404 85 262 0.0 1.0 0.00 0.00 0.00 76 1014.4
20260902153904 85 267 0.0 0.0 0.00 0.00 0.00 77 1014.2
20260902153405 85 192 0.0 0.0 0.00 0.00 0.00 78 1014.3
20260902152905 85 248 0.0 0.0 0.00 0.00 0.00 77 1014.4
20260902151904 84 218 0.0 1.0 0.00 0.00 0.00 77 1014.4
20260902151416 84 257 0.0 0.0 0.00 0.00 0.00 77 1014.5
20260902150904 84 159 0.0 0.0 0.00 0.00 0.00 80 1014.4
20260902145904 84 210 0.0 0.0 0.00 0.00 0.00 80 1014.4
20260902145404 84 210 0.0 0.0 0.00 0.00 0.00 78 1014.4
20260902144404 83 263 0.0 0.0 0.00 0.00 0.00 79 1014.4
20260902143905 83 234 0.0 0.0 0.00 0.00 0.00 80 1014.2
20260902142904 82 209 0.0 0.0 0.00 0.00 0.00 80 1014.2
20260902142404 82 264 0.0 6.0 0.00 0.00 0.00 81 1014.2
20260902141904 82 243 0.0 5.0 0.00 0.00 0.00 82 1014.3
20260902140904 81 249 0.0 5.0 0.00 0.00 0.00 84 1014.2
20260902135904 80 246 1.0 6.0 0.00 0.00 0.00 84 1014.2
20260902135404 79 242 0.0 8.0 0.00 0.00 0.00 85 1014.2
20260902134905 79 256 0.0 0.0 0.00 0.00 0.00 86 1014.1
20260902134404 78 203 1.0 6.0 0.00 0.00 0.00 86 1014.2
20260902133904 78 280 0.0 5.0 0.00 0.00 0.00 87 1014.2
20260902133404 78 219 1.0 6.0 0.00 0.00 0.00 87 1014.3
20260902131404 76 260 0.0 0.0 0.00 0.00 0.00 89 1014.2
20260902130904 76 262 0.0 5.0 0.00 0.00 0.00 90 1014.2
20260902130404 76 223 0.0 1.0 0.00 0.00 0.00 91 1014.2
20260902125904 75 263 0.0 0.0 0.00 0.00 0.00 92 1014.3
20260902124405 74 271 0.0 0.0 0.00 0.00 0.00 93 1014.4
20260902123405 73 271 0.0 0.0 0.00 0.00 0.00 94 1014.5
20260902122904 73 271 0.0 0.0 0.00 0.00 0.00 94 1014.6
20260902122405 73 271 0.0 0.0 0.00 0.00 0.00 94 1014.6
20260902121904 73 271 0.0 0.0 0.00 0.00 0.00 94 1014.6
20260902120904 73 271 0.0 0.0 0.00 0.00 0.00 94 1014.5
20260902120404 73 271 0.0 0.0 0.00 0.00 0.00 94 1014.3
20260902114904 73 271 0.0 0.0 0.00 0.00 0.00 94 1014.4
20260902114404 73 271 0.0 0.0 0.00 0.00 0.00 94 1014.3
20260902113904 73 271 0.0 0.0 0.00 0.00 0.00 94 1014.1
20260902113404 73 271 0.0 0.0 0.00 0.00 0.00 94 1013.8
20260902112904 73 271 0.0 0.0 0.00 0.00 0.00 94 1013.6
20260902112404 73 271 0.0 0.0 0.00 0.00 0.00 94 1013.5
20260902111904 73 271 0.0 0.0 0.00 0.00 0.00 94 1013.4
20260902111404 73 271 0.0 0.0 0.00 0.00 0.00 94 1013.5
20260902110904 73 271 0.0 0.0 0.00 0.00 0.00 94 1013.6
20260902110404 73 271 0.0 0.0 0.00 0.00 0.00 94 1013.5
20260902105904 73 271 0.0 0.0 0.00 0.00 0.00 94 1013.4
20260902105404 73 271 0.0 0.0 0.00 0.00 0.00 94 1013.5
20260902104904 73 271 0.0 0.0 0.00 0.00 0.00 94 1013.5
20260902104404 73 271 0.0 0.0 0.00 0.00 0.00 94 1013.5
20260902103904 73 271 0.0 0.0 0.00 0.00 0.00 94 1013.5
20260902103404 73 271 0.0 0.0 0.00 0.00 0.00 94 1013.5
20260902102904 73 271 0.0 0.0 0.00 0.00 0.00 94 1013.5
20260902102404 73 271 0.0 0.0 0.00 0.00 0.00 94 1013.3
20260902101904 73 271 0.0 0.0 0.00 0.00 0.00 94 1013.3
20260902101404 73 271 0.0 0.0 0.00 0.00 0.00 94 1013.3
20260902100904 73 271 0.0 0.0 0.00 0.00 0.00 94 1013.2
20260902100404 73 271 0.0 0.0 0.00 0.00 0.00 94 1013.2
20260902095405 73 271 0.0 0.0 0.00 0.00 0.00 94 1013.2
20260902094904 73 268 0.0 3.0 0.00 0.00 0.00 94 1013.2
20260902093904 73 263 0.0 0.0 0.00 0.00 0.00 94 1013.3
20260902093404 73 263 0.0 0.0 0.00 0.00 0.00 94 1013.3
20260902092404 73 269 0.0 0.0 0.00 0.00 0.00 94 1013.5
20260902091904 72 269 0.0 0.0 0.00 0.00 0.00 94 1013.6
20260902091404 72 269 0.0 0.0 0.00 0.00 0.00 94 1013.6
20260902090905 72 269 0.0 0.0 0.00 0.00 0.00 94 1013.7
20260902090404 72 269 0.0 0.0 0.00 0.00 0.00 94 1013.5
20260902085904 72 269 0.0 0.0 0.00 0.00 0.00 94 1013.5
20260902085404 72 269 0.0 0.0 0.00 0.00 0.00 94 1013.5
20260902084904 72 269 0.0 0.0 0.00 0.00 0.00 94 1013.5
20260902084404 72 269 0.0 0.0 0.00 0.00 0.00 94 1013.4
20260902083904 72 269 0.0 0.0 0.00 0.00 0.00 93 1013.5
20260902083404 73 269 0.0 0.0 0.00 0.00 0.00 93 1013.5
20260902082905 73 269 0.0 0.0 0.00 0.00 0.00 93 1013.5
20260902082404 73 269 0.0 0.0 0.00 0.00 0.00 93 1013.5
20260902081904 73 269 0.0 0.0 0.00 0.00 0.00 93 1013.5
20260902081404 73 269 0.0 0.0 0.00 0.00 0.00 93 1013.5
20260902080904 73 269 0.0 0.0 0.00 0.00 0.00 93 1013.4
20260902080404 73 269 0.0 0.0 0.00 0.00 0.00 93 1013.5
20260902075904 73 269 0.0 0.0 0.00 0.00 0.00 93 1013.5
20260902075404 73 270 0.0 0.0 0.00 0.00 0.00 93 1013.5
20260902074904 73 270 0.0 0.0 0.00 0.00 0.00 93 1013.5
20260902073904 73 270 0.0 0.0 0.00 0.00 0.00 93 1013.5
20260902072904 73 270 0.0 0.0 0.00 0.00 0.00 93 1013.5
20260902072404 73 270 0.0 0.0 0.00 0.00 0.00 93 1013.5
20260902071904 73 270 0.0 0.0 0.00 0.00 0.00 93 1013.6
20260902071404 73 269 0.0 0.0 0.00 0.00 0.00 93 1013.6
20260902070904 73 269 0.0 0.0 0.00 0.00 0.00 93 1013.7
20260902070404 73 269 0.0 0.0 0.00 0.00 0.00 93 1013.7
20260902065904 73 269 0.0 0.0 0.00 0.00 0.00 93 1013.7
20260902064904 73 269 0.0 0.0 0.00 0.00 0.00 93 1013.8
20260902064404 73 269 0.0 0.0 0.00 0.00 0.00 93 1013.8
20260902063904 73 269 0.0 0.0 0.00 0.00 0.00 93 1013.8
20260902063404 73 269 0.0 0.0 0.00 0.00 0.00 93 1013.9
20260902062904 73 269 0.0 0.0 0.00 0.00 0.00 93 1013.8
20260902062404 73 269 0.0 0.0 0.00 0.00 0.00 93 1013.9
20260902061904 73 269 0.0 0.0 0.00 0.00 0.00 93 1013.8
20260902061405 73 269 0.0 0.0 0.00 0.00 0.00 93 1013.8
20260902060905 73 269 0.0 0.0 0.00 0.00 0.00 93 1013.9
20260902055905 73 269 0.0 0.0 0.00 0.00 0.00 93 1014.0
20260902054905 73 269 0.0 0.0 0.00 0.00 0.00 92 1013.9
20260902054405 73 269 0.0 0.0 0.00 0.00 0.00 92 1013.9
20260902053905 73 269 0.0 0.0 0.00 0.00 0.00 92 1013.8
20260902053405 73 269 0.0 0.0 0.00 0.00 0.00 92 1013.9
20260902052905 73 269 0.0 0.0 0.00 0.00 0.00 92 1013.9
20260902052405 73 269 0.0 0.0 0.00 0.00 0.00 91 1013.7
20260902051905 73 269 0.0 0.0 0.00 0.00 0.00 91 1013.6
20260902051405 73 269 0.0 0.0 0.00 0.00 0.00 91 1013.6
20260902050405 74 269 0.0 0.0 0.00 0.00 0.00 91 1013.6
20260902045905 74 269 0.0 0.0 0.00 0.00 0.00 90 1013.5
20260902045405 74 269 0.0 0.0 0.00 0.00 0.00 90 1013.4
20260902044404 74 269 0.0 0.0 0.00 0.00 0.00 90 1013.4
20260902043904 74 269 0.0 0.0 0.00 0.00 0.00 90 1013.5
20260902043405 74 269 0.0 0.0 0.00 0.00 0.00 90 1013.5
20260902042905 74 269 0.0 0.0 0.00 0.00 0.00 89 1013.5
20260902042405 75 269 0.0 0.0 0.00 0.00 0.00 89 1013.4
20260902041905 75 272 0.0 0.0 0.00 0.00 0.00 89 1013.4
20260902041405 75 270 0.0 0.0 0.00 0.00 0.00 89 1013.3
20260902040905 75 270 0.0 0.0 0.00 0.00 0.00 89 1013.3
20260902040405 75 270 0.0 0.0 0.00 0.00 0.00 89 1013.3
20260902035905 75 270 0.0 0.0 0.00 0.00 0.00 89 1013.2
20260902035405 75 270 0.0 0.0 0.00 0.00 0.00 89 1013.2
20260902034904 75 270 0.0 0.0 0.00 0.00 0.00 89 1013.2
20260902033905 75 270 0.0 0.0 0.00 0.00 0.00 88 1013.2
20260902033405 75 270 0.0 0.0 0.00 0.00 0.00 88 1013.2
20260902032905 75 270 0.0 0.0 0.00 0.00 0.00 88 1013.3
20260902032405 75 270 0.0 0.0 0.00 0.00 0.00 88 1013.3
20260902031905 75 270 0.0 0.0 0.00 0.00 0.00 88 1013.2
20260902031405 75 270 0.0 0.0 0.00 0.00 0.00 88 1013.2
20260902030905 75 270 0.0 0.0 0.00 0.00 0.00 88 1013.2
20260902030405 75 270 0.0 0.0 0.00 0.00 0.00 88 1013.2
20260902025905 75 271 0.0 0.0 0.00 0.00 0.00 89 1013.2
20260902025404 75 271 0.0 0.0 0.00 0.00 0.00 89 1013.3
20260902024904 75 271 0.0 0.0 0.00 0.00 0.00 89 1013.3
20260902024405 75 271 0.0 0.0 0.00 0.00 0.00 89 1013.3
20260902023904 75 271 0.0 0.0 0.00 0.00 0.00 89 1013.4
20260902023405 75 271 0.0 0.0 0.00 0.00 0.00 90 1013.3
20260902022905 75 271 0.0 0.0 0.00 0.00 0.00 90 1013.3
20260902022405 75 271 0.0 0.0 0.00 0.00 0.00 90 1013.2
20260902021905 75 271 0.0 0.0 0.00 0.00 0.00 90 1013.2